Location: Cahas Mountain Overlook
(37.0833°N, 80.1000°W)
Time: 18:10:44
(UTC-04:00)

SR - Pass Details

Date: 10 February 2026
Orbit: 572 x 849 km, 66.7° (Epoch: 12 March)

Event Time Altitude Azimuth Distance (km) Brightness Sun altitude
Rises 05:00:08 0° 155° (SSE) 2,763 ? -27.3°
Reaches altitude 10° 05:04:55 10° 105° (ESE) 1,873 ? -26.3°
Maximum altitude 05:04:59 10° 104° (ESE) 1,874 ? -26.3°
Drops below altitude 10° 05:05:03 10° 103° (ESE) 1,874 ? -26.3°
Sets 05:09:53 0° 54° (NE) 2,813 ? -25.3°
